This is the latest recevied weather packets stored in our database for station/object XQ6AK-15. If no packets are shown the sender has not sent any weather packets the latest 1 day(s).
| Time | Temp. | Humidity | Pressure | Rain* | Wind** | Luminosity | Snow |
|---|---|---|---|---|---|---|---|
| 1836274772 | 9.44° C | 99% | 1008.4 hPa | 3.05 mm | 0 m/s | 0 W/m² | - |
| 1836274471 | 9.44° C | 99% | 1008.6 hPa | 1.78 mm | 0 m/s | 0 W/m² | - |
| 1836274324 | 9.44° C | 99% | 1008.1 hPa | 3.05 mm | 0 m/s | 0 W/m² | - |
| 1836274169 | 9.44° C | 99% | 1008.5 hPa | 3.05 mm | 0 m/s | 0 W/m² | - |
| 1836273869 | 9.44° C | 99% | 1008.4 hPa | 3.05 mm | 0 m/s | 0 W/m² | - |
| 1778034416 | 11.67° C | 99% | 1005.2 hPa | 3.05 mm | 1.79 m/s, 277° | 0 W/m² | - |
| 1778034113 | 11.67° C | 99% | 1004.9 hPa | 3.05 mm | 0 m/s | 0 W/m² | - |
| 1778033811 | 11.67° C | 99% | 1004.9 hPa | 3.05 mm | 0 m/s | 0 W/m² | - |
| 1778033508 | 11.67° C | 99% | 1005 hPa | 1.78 mm | 0 m/s | 0 W/m² | - |
| 1778033199 | 11.67° C | 99% | 1004.9 hPa | 1.78 mm | 0.45 m/s, 247° | 0 W/m² | - |
| 1778032897 | 11.67° C | 99% | 1005.1 hPa | 1.78 mm | 0 m/s | 0 W/m² | - |
| 1778032594 | 11.67° C | 99% | 1005.1 hPa | 1.27 mm | 0 m/s | 0 W/m² | - |
| 1778032291 | 11.67° C | 99% | 1005.1 hPa | 1.78 mm | 0 m/s | 0 W/m² | - |
| 1778031989 | 11.67° C | 99% | 1004.9 hPa | 3.05 mm | 0 m/s | 0 W/m² | - |
| 1778031684 | 11.67° C | 99% | 1005.1 hPa | 3.05 mm | 0 m/s | 0 W/m² | - |
| 1778031383 | 11.67° C | 99% | 1005 hPa | 3.05 mm | 0.45 m/s, 250° | 0 W/m² | - |
| 1778031079 | 11.67° C | 99% | 1005 hPa | 1.27 mm | 0 m/s | 0 W/m² | - |
| 1778030775 | 11.67° C | 99% | 1005 hPa | 1.78 mm | 0 m/s | 0 W/m² | - |
| 1778030472 | 11.67° C | 99% | 1005.1 hPa | 3.05 mm | 0 m/s | 0 W/m² | - |
| 1778030170 | 11.67° C | 99% | 1005.2 hPa | 3.05 mm | 0 m/s | 0 W/m² | - |
| 1778029866 | 12.22° C | 99% | 1004.9 hPa | 3.05 mm | 0 m/s | 0 W/m² | - |
| 1778029560 | 12.22° C | 99% | 1005.1 hPa | 1.27 mm | 0 m/s | 0 W/m² | - |
| 1778029256 | 12.22° C | 99% | 1004.9 hPa | 3.05 mm | 0 m/s | 0 W/m² | - |
| 1778028953 | 12.22° C | 99% | 1005 hPa | 4.83 mm | 0 m/s | 0 W/m² | - |
| 1778028648 | 12.22° C | 99% | 1005.1 hPa | 4.83 mm | 0 m/s | 0 W/m² | - |
* Rain latest hour (hover to see other rain measurements)
** Current wind speed in m/s (hover to see current wind gust speed)